Location: Las Navas
(40.6024°N, 4.3345°W)
Time: 01:44:40
(UTC+00:00)

STARLINK-1119 - Pass Details

Date: 03 April 2020
Orbit: 548 x 551 km, 53.0° (Epoch: 27 May)

Event Time Altitude Azimuth Distance (km) Brightness Sun altitude
Rises 19:02:46 0° 312° (NW) 2,729 8.3 -4.2°
Reaches altitude 10° 19:05:09 10° 321° (NW) 1,833 7.1 -4.7°
Maximum altitude 19:09:02 36° 29° (NNE) 881 4.5 -5.4°
Drops below altitude 10° 19:12:53 10° 98° (E) 1,825 5.6 -6.1°
Enters shadow 19:13:23 - 100° (E) 2,009 5.8 -6.2°
